Regional Weather Roundup
Issued by NWS Upton, NY

Current Version | Previous Version | Text Only | Print | Product List | Glossary On
Versions: 1 2 3 4 5 6 7 8 9 10 11 12 13 14 15 16 17 18 19 20 21 22 23 24 25 26 27 28 29 30 31 32 33 34 35 36 37 38 39 40 41 42 43 44 45 46 47 48 49 50
028
ASUS41 KOKX 261609
RWROKX

REGIONAL WEATHER ROUNDUP
NATIONAL WEATHER SERVICE NEW YORK NY
1200 PM EDT WED APR 26 2017

NOTE: "FAIR" INDICATES FEW OR NO CLOUDS BELOW 12,000 FEET WITH NO
SIGNIFICANT WEATHER AND/OR OBSTRUCTIONS TO VISIBILITY.

NYZ071-072-176-178-NJZ106-104-261700-
NEW YORK CITY METRO AREA

CITY           SKY/WX    TMP DP  RH WIND       PRES   REMARKS
Central Park   CLOUDY    57  55  93 VRB6G18   29.80R
Wall St Helipt LGT RAIN  57  54  89 NE15G23   29.78S
Bronx Bot Gard   N/A     57  54  88 E3        29.78F
LaGuardia APRT LGT RAIN  57  53  86 NE14      29.77S
Kennedy INTL   CLOUDY    58  56  93 NE9       29.77S
Breezy Point     N/A     55 N/A N/A N9          N/A
Newark/Liberty LGT RAIN  57  56  96 NE8       29.78R
Teterboro      LGT RAIN  59  55  87 VRB5      29.76S
$$

NYZ177-179-078>081-261700-
LONG ISLAND NEW YORK

CITY           SKY/WX    TMP DP  RH WIND       PRES   REMARKS
Jones Beach      N/A     55 N/A N/A NE12        N/A
Matinecock PT    N/A     50 N/A N/A E12         N/A
Farmingdale    CLOUDY    57  54  89 NE10      29.76S
MacArthur/ISP  DRIZZLE   58  57  97 NE12      29.76S FOG
Shirley        FOG       57  57 100 VRB6      29.77S VSB 3/4
Mt Sinai Harb    N/A    N/A N/A N/A E5          N/A
Westhampton    FOG       56  55  97 NE8       29.78S VSB 1/2
East Hampton   CLOUDY    55  55  98 CALM      29.77S FOG
Montauk          N/A     58  56  93 VRB5      29.78F
$$

NYZ052-065-067-261700-
HUDSON VALLEY

CITY           SKY/WX    TMP DP  RH WIND       PRES   REMARKS
White Plains   CLOUDY    60  55  83 NE9       29.77S
Larchmont Harb   N/A     54 N/A N/A NE12        N/A
Croton O-T Hud   N/A     59 N/A N/A N7          N/A
Newburgh       CLOUDY    57  55  94 NE14      29.81F
Montgomery     CLOUDY    60  53  77 NE14      29.78F
Poughkeepsie   CLOUDY    58  54  86 NE7       29.79F FOG
Albany         CLOUDY    59  54  83 N6        29.85S
$$

NJZ001-105-106-008-010-013-015-019>022-104-261700-
NEW JERSEY

CITY           SKY/WX    TMP DP  RH WIND       PRES   REMARKS
Newark/Liberty LGT RAIN  57  56  96 NE8       29.78R
Teterboro      LGT RAIN  59  55  87 VRB5      29.76S
Caldwell       CLOUDY    59  54  83 E8        29.79R
Somerville     CLOUDY    60  56  86 NE3       29.77R
Linden         LGT RAIN  58  55  91 CALM      29.78S
Sussex         CLOUDY    56  53  90 NE9       29.81R
Andover          N/A     55  53  93 VRB3      29.81R
Trenton        CLOUDY    59  56  89 N7        29.77R
Millville      CLOUDY    61  59  93 N6        29.77R
Atlantic City  CLOUDY    61  58  90 N7        29.75S
Wrightstown    CLOUDY    59  57  94 N9        29.74S
Toms River     CLOUDY    58  56  93 N7        29.77S
Belmar         CLOUDY    57  55  93 N7        29.78R
$$

PAZ047>061-062-071-261700-
EASTERN PENNSYLVANIA

CITY           SKY/WX    TMP DP  RH WIND       PRES   REMARKS
Philadelphia   CLOUDY    60  56  86 N8        29.78R
Allentown      CLOUDY    62  54  74 E7        29.80R
Scranton       CLOUDY    64  54  69 N8        29.79R
$$

CTZ002-004>006-009-010-012-RIZ004-006-007-MAZ004-011-015-261700-
SOUTHERN NEW ENGLAND
 IN CT

CITY           SKY/WX    TMP DP  RH WIND       PRES   REMARKS
Bradley INTL   CLOUDY    54  52  93 N13       29.84F
Hartford       CLOUDY    55  53  93 N12G17    29.82F FOG
Danbury        CLOUDY    55  55 100 NE8       29.80F
Wtrbury/Oxford CLOUDY    54  50  87 NE9       29.82S FOG
Bridgeport     CLOUDY    59  54  83 NE14      29.77F
Meriden        CLOUDY    56  53  90 VRB7      29.81F
New Haven      CLOUDY    57  55  93 N10       29.78F
Chester        LGT RAIN  55  55 100 NE6       29.80S
Groton         FOG       56  56 100 NE7       29.79S VSB 1/4
Wilimantic     CLOUDY    58  55  90 NE8       29.82F

 IN RI

CITY           SKY/WX    TMP DP  RH WIND       PRES   REMARKS
Providence     CLOUDY    57  57 100 S8        29.83F
Block Island   LGT RAIN  56  56 100 SE12      29.79F VSB 1/4
Westerly       FOG       56  56 100 E7        29.80S VSB 1/4
 IN MA

CITY           SKY/WX    TMP DP  RH WIND       PRES   REMARKS
Boston         FOG       52  52 100 E12       29.86F VSB 1/4
Worcester      FOG       49  48  97 NE9       29.85F VSB 1/2
Westfield      CLOUDY    54  53  97 N13       29.84F
Provincetown   CLOUDY    58  56  93 SE16G26   29.86S
Nantucket      CLOUDY    55  54  96 SE24G31   29.82S FOG
$$

ANZ330-335-338-340-345-350-353-355-261700-
COASTAL MARINE OBSERVATIONS


STATION/POSITION TIME  SKY/WX   TEMP    WIND        PRES    VSBY  WAVE
                                AIR SEA DIR/SP/G                  HT/PER
                 (UTC)          (F)     (DEG/KT/KT) (MB)    (MI)  (FT/S)
NY HARB ENTRANCE 1450            50 48   40/  8/ 10 1007.6          7/11
20 S FIRE ISLAND 1550            48 48   20/  6/  8 1006.6         10/11
GREAT SOUTH BAY  1515            56 55   40/ 10/ 10   N/A
23 SSW MONTAUK P 1450            49 45              1007.8          9/11
15 E BARNEGAT LI 1530               50                N/A           7/12
HUDSON CANYON    1450            53 48  160/  2/  4 1006.9         11/11
KINGS POINT      1548            56 48   80/  5/ 10 1007.8
EXECUTION ROCKS  NOT AVBL
CENTRAL LI SOUND NOT AVBL
EASTERN LI SOUND NOT AVBL
ROBBINS REEF     1548            56      60/ 10/ 12 1008.6
$$


>>>>>>>>>>>>>>>>>>>>>>>>>>>> KEY <<<<<<<<<<<<<<<<<<<<<<<<<<<
>                                                          <
>     SKY/WX - Sky Condition/Present Weather               <
>     TMP    - Temperature in Fahrenheit                   <
>     DP     - Dew Point in Fahrenheit                     <
>     RH     - Relative Humidity in Percent                <
>     WIND   - Direction (from) and Speed in MPH           <
>     PRES   - Mean Sea Level Pressure (inches of Hg)      <
>     WCI    - Wind Chill Index                            <
>     VSB    - VISIBILITY IN MILES                         <
>     HX     - HEAT INDEX                                  <
>     TC     - TEMPERATURE IN CELSIUS                      <
>     VRB    - VARIABLE WIND DIRECTION                     <
>                                                          <
>>>>>>>>>>>>>>>>>>>>>>>>>>>> KEY <<<<<<<<<<<<<<<<<<<<<<<<<<<




USA.gov is the U.S. government's official web portal to all federal, state and local government web resources and services.